Regional Weather Roundup
Issued by NWS San Diego, CA

Home | Current Version | Previous Version | Text Only | Print | Product List | Glossary On
Versions: 1 2 3 4 5 6 7 8 9 10 11 12 13 14 15 16 17 18 19 20 21 22 23 24 25 26 27 28 29 30 31 32 33 34 35 36 37 38 39 40 41 42 43 44 45 46 47 48 49 50
000
ASUS46 KSGX 161403
RWRSGX

SAN DIEGO HOURLY WEATHER ROUNDUP
NATIONAL WEATHER SERVICE SAN DIEGO CA
700 AM PDT TUE SEP 16 2014

NOTE: "FAIR" INDICATES FEW OR NO CLOUDS BELOW 12,000 FEET WITH NO
SIGNIFICANT WEATHER AND/OR OBSTRUCTIONS TO VISIBILITY.

CAZ042-043-060-061-PZZ750-775-161500-

GREATER SAN DIEGO AREA

CITY           SKY/WX    TMP DP  RH WIND       PRES   REMARKS
LINDBERGH FLD  PTCLDY    76  67  73 NW5       29.76S
POINT LOMA       N/A     73  64  73 NW7         N/A
NATIONAL CITY    N/A     74  71  90 CALM      29.76S
CHULA VISTA      N/A     72  70  94 CALM      29.69R
IMPERIAL BEACH PTCLDY    73  69  87 E3        29.76R
BROWN FIELD    CLEAR     73  68  84 CALM      29.77R
MIRAMAR MCAS   PTCLDY    75  66  73 NW3       29.76S
MONTGOMERY FLD CLEAR     76  66  71 N3        29.77R

$$

NORTH SAN DIEGO COUNTY

CITY           SKY/WX    TMP DP  RH WIND       PRES   REMARKS
CAMP PENDLETON CLEAR     67  60  78 CALM      29.76R HAZE
OCEANSIDE AP   CLEAR     68  62  81 CALM      29.75S
OCEANSIDE HBR    N/A     72  66  82 E2        29.78S
VISTA            N/A     69  63  82 CALM      29.74R
CARLSBAD       CLEAR     73  64  73 CALM        N/A
DEL MAR          N/A     71  69  93 CALM      29.77S
LA JOLLA SCRIP   N/A     73  69  86 CALM      29.73S
FALLBROOK        N/A     77  60  56 E5        29.77R
ESCONDIDO        N/A     74  62  66 CALM      29.77R
SAN MARCOS       N/A     78  62  58 CALM      29.73S
POWAY            N/A     69  62  76 CALM      29.76S

$$

EAST SAN DIEGO COUNTY

CITY           SKY/WX    TMP DP  RH WIND       PRES   REMARKS
RAMONA           N/A     80  57  45 VRB3      29.83R
SANTEE LAKES     N/A     72  62  70 CALM      29.76S
LA MESA          N/A     75  67  76 CALM      29.69R
JAMUL            N/A     73  59  61 CALM      29.74R
DESCANSO N       N/A     78  60  53 E14       29.66R
MT. LAGUNA OBS   N/A     63  58  83 N12       29.73S
CAMPO            N/A     79  60  52 NE13      29.90R

$$

ORANGE COUNTY AND THE LOS ANGELES BASIN

CITY           SKY/WX    TMP DP  RH WIND       PRES   REMARKS
JOHN WAYNE AP  CLEAR     77  65  66 CALM      29.76R
LAKE FOREST FR   N/A     77  52  40 CALM      29.64S
SANTA ANA        N/A     72  67  84 CALM      29.71R
HUNTINGTON BCH   N/A     69  66  91 CALM      29.79R
LOS ALAMITOS   CLEAR     69  64  85 CALM      29.77R
FULLERTON      CLEAR     75  64  68 CALM      29.76R
LONG BEACH     CLEAR     75  65  70 CALM      29.76R
L.A. AP        PTCLDY    76  64  66 CALM      29.76S
L.A. DOWNTOWN  CLEAR     77  63  61 CALM      29.75S

$$

THE INLAND EMPIRE

CITY           SKY/WX    TMP DP  RH WIND       PRES   REMARKS
CORONA         CLEAR     73  57  57 E6        29.79S
CHINO          CLEAR     71  61  70 N5        29.81R
ONTARIO        CLEAR     79  55  43 NE3       29.81R
RIVERSIDE AP   CLEAR     78  58  49 CALM      29.81R
RIV CYN CREST    N/A     83  76  78 S7        29.79S
MORENO VALLEY    N/A     82  69  66 E8        29.04S
MARCH ARB      CLEAR     82  70  66 E3        29.86R
HORSETHIEF CYN   N/A     77  51  39 S1        29.78S
PERRIS           N/A     81  72  74 E5        29.81R
MENIFEE          N/A     74  60  62 CALM      29.88S
HEMET EAST       N/A     80  51  35 CALM      29.77R
FRENCH VALLEY  FAIR      75  55  50 N5        29.84S
TEMECULA         N/A     73  61  67 CALM      29.79S

$$

SAN BERNARDINO AND RIVERSIDE COUNTY MOUNTAINS

CITY           SKY/WX    TMP DP  RH WIND       PRES   REMARKS
BIG BEAR AP    CLEAR     45  41  87 CALM      30.28R
ANGELUS OAKS     N/A     64  47  54 CALM      29.73R
PINE COVE        N/A     68  49  51 CALM      29.70R

$$

SOUTHERN DESERT INCLUDING THE COACHELLA VALLEY

CITY           SKY/WX    TMP DP  RH WIND       PRES   REMARKS
PALM SPRINGS   PTCLDY    87  75  67 N6        29.87R HX  96
PALM DESERT      N/A     86  76  71 CALM        N/A  HX  96
THERMAL        CLEAR     82  73  74 CALM      29.81R
BLYTHE         CLEAR     86  73  65 SW3       29.86R
IMPERIAL AP    CLEAR     86  72  62 E10       29.80R
EL CENTRO NAS  PTCLDY    84  69  60 E7        29.80R
MEXICALI       PTCLDY    84  72  65 E6        29.82

$$

UPPER DESERT

CITY           SKY/WX    TMP DP  RH WIND       PRES   REMARKS
VICTORVILLE AP CLEAR     73  46  38 S3        29.97S
HESPERIA         N/A     70  49  47 W3        29.89S
APPLE VALLEY     N/A     63  52  66 CALM      30.05R
PALMDALE       CLEAR     72  47  40 S3        29.95R
LANCASTER      CLEAR     69  46  43 NE5       29.94R
EDWARDS AFB    CLEAR     70  47  43 NW5       29.91R
DAGGETT        CLEAR     78  47  33 W8        29.90R
29 PALMS N     CLEAR     80  69  69 SW15      29.99R
NEEDLES        CLEAR     89  65  44 SW9       29.88R

$$

REGIONAL REPORTS

CITY           SKY/WX    TMP DP  RH WIND       PRES   REMARKS
SANTA BARBARA  CLEAR     67  59  75 CALM      29.76S
SANDBERG       CLEAR     75  46  35 NW9       30.08R
MT. WILSON       N/A     70  46  43 MISG        N/A
LAS VEGAS NV   PTCLDY    81  49  32 SW5       29.89R
PHOENIX AZ     CLOUDY    85  66  53 E5        29.93R
TIJUANA        CLEAR     73  66  78 CALM      29.78S
ENSENADA NW      N/A     74  32  21 CALM      29.74R

$$

OFFSHORE ISLANDS

CITY           SKY/WX    TMP DP  RH WIND       PRES   REMARKS
CATALINA ARPT  CLEAR     86  50  28 N8        29.85S
SAN NICOLAS IS PTCLDY    68  57  68 W25       29.79R

$$

MARINE AND OFFSHORE BUOY REPORTS

STATION/POSITION SKY/WX   TEMP    WIND        PRES    SWELL
                          AIR SEA DIR/SP/G            HT/PER/DIR
                          (F)     (DEG/KT/KT) (MB)    (FT/S/D)
TANNER BANKS               69 70  320/ 21/ 25 1008.5R   3/250/19
S CLEMENTE BASIN           73 73  320/  8/ 10 1007.7R   5/240/19
SAN NICOLAS IS.               67                N/A     5/190/20
SO. S. ROSA ISLA           66 67  330/ 19/ 25 1008.5R   3/19
W. S. BARBARA CH           64 65  320/ 25/ 29 1007.8R   3/120/19
M. S. BARBARA CH           67 66  210/  4/  6 1007.9R
S. MONICA BASIN            73 74  350/ 12/ 14 1007.1R   3/220/19
S PEDRO CHANNEL               72                N/A     2/200/20
DANA POINT                    70                N/A     3/190/20
CMP PENDLETON NS              71                N/A     5/220/20
OCEANSIDE OFFSHR              73                N/A     3/210/20
TORREY PINES OTR              74                N/A     3/210/20
LA JOLLA 1                 74      CALM  /  1   N/A
MISSION BAY BUOY              74                N/A     3/200/20
SAN DIEGO BAY                                 1008.0R

$$



USA.gov is the U.S. government's official web portal to all federal, state and local government web resources and services.